User: anonymous   Login
Location: Alvis C Story Elementary School
(33.0968°N, 96.6364°W)
Time: 17:57:34
(UTC+00:00)
Language:

SL-4 R/B - Orbit

View from above orbital plane
View from above orbital plane
View from above satellite
View from above satellite

Ground track
Ground track

The orbit data is extracted from the following two-line orbital elements,

1 39679U 14021B   22145.18805293  .00002922  00000-0  15157-3 0  9999
2 39679  51.6158  64.2950 0164727 237.2992 121.2003 15.08577703445925
Epoch (UTC): 25 May 2022 04:30:47
Eccentricity: 0.0164727
inclination: 51.6158°
perigee height: 426 km
apogee height: 654 km
right ascension of ascending node: 64.2950°
argument of perigee: 237.2992°
revolutions per day: 15.08577703
mean anomaly at epoch: 121.2003°
orbit number at epoch: 44592

The dashed part of the orbit path shows where the satellite is in the earth's shadow,  

DLR